Pawtucket, RI

2:02 PM EST on December 16, 2017 (GMT -0500)
North Central State

Weather History for KSFZ - June, 2013

Change the Weather History Date:

Saturday, June 22, 2013

  Actual Average Record
Temperature  
Mean Temperature 72 °F -  
Max Temperature 80 °F 76 °F 91 °F (2012)
Min Temperature 64 °F 57 °F 48 °F (2014)
Cooling Degree Days 7    
Growing Degree Days 22 (Base 50)    
Moisture  
Dew Point 55 °F    
Average Humidity 56    
Maximum Humidity 73    
Minimum Humidity 39    
Precipitation  
Precipitation 0.00 in - - ()
Sea Level Pressure  
Sea Level Pressure 30.19 in    
Wind  
Wind Speed 6 mph (SSW)    
Max Wind Speed 7 mph    
Max Gust Speed 16 mph    
Visibility 10 miles    
Events      
Averages and records for this station are not official NWS values.
T = Trace of Precipitation, MM = Missing Value Source: NWS Daily Summary

Daily Weather History Graph

Daily Weather History Graph

Search for Another Location

Airport or City:

Trip Planner

Search our weather history database for the weather conditions in past years. The results will help you decide how hot, cold, wet, or windy it might be!

Date:

Astronomy

Jun. 22, 2013 Rise Set
Actual Time 5:11 AM EDT 8:25 PM EDT
Civil Twilight 4:36 AM EDT 8:59 PM EDT
Nautical Twilight 3:52 AM EDT 9:43 PM EDT
Astronomical Twilight 2:58 AM EDT 10:37 PM EDT
Moon 7:35 PM EDT (6/22) 4:21 AM EDT (6/22)
Length of Visible Light 16h 22m
Length of Day
15h 13m
Waxing Gibbous, 99% of the Moon is Illuminated
Jun 22
Waxing Gibbous
Jun 23
Full
Jun 30
Last Quarter
Jul 8
New
Jul 15
First Quarter

Hourly Weather History & Observations

Time (EDT) Temp. Heat Index Dew Point Humidity Pressure Visibility Wind Dir Wind Speed Gust Speed Precip Events Conditions
2:35 PM 80.6 °F 80.8 °F 57.2 °F 45% 30.23 in 10.0 mi SSW 6.9 mph - N/A   Partly Cloudy
2:55 PM 80.6 °F 80.8 °F 57.2 °F 45% 30.22 in 10.0 mi SW 5.8 mph - N/A   Clear
3:15 PM 80.6 °F 80.8 °F 57.2 °F 45% 30.22 in 10.0 mi South 5.8 mph - N/A   Clear
3:35 PM 80.6 °F 80.8 °F 57.2 °F 45% 30.21 in 10.0 mi SSW 3.5 mph - N/A   Clear
3:55 PM 80.6 °F 80.8 °F 57.2 °F 45% 30.20 in 10.0 mi SSW 6.9 mph - N/A   Clear
4:15 PM 80.6 °F 80.5 °F 55.4 °F 42% 30.19 in 10.0 mi SSW 4.6 mph - N/A   Clear
4:35 PM 80.6 °F 80.5 °F 55.4 °F 42% 30.18 in 10.0 mi SSW 3.5 mph - N/A   Clear
4:55 PM 80.6 °F 80.3 °F 53.6 °F 39% 30.18 in 10.0 mi SW 6.9 mph - N/A   Clear
5:15 PM 78.8 °F - 53.6 °F 42% 30.18 in 10.0 mi SW 5.8 mph - N/A   Clear
5:35 PM 78.8 °F - 55.4 °F 44% 30.18 in 10.0 mi SW 6.9 mph - N/A   Clear
5:55 PM 77.0 °F - 57.2 °F 50% 30.18 in 10.0 mi SSW 5.8 mph - N/A   Clear
6:15 PM 75.2 °F - 57.2 °F 53% 30.18 in 10.0 mi SSW 5.8 mph - N/A   Clear
6:35 PM 73.4 °F - 57.2 °F 57% 30.19 in 10.0 mi SSW 4.6 mph 16.1 mph N/A   Clear
6:55 PM 71.6 °F - 57.2 °F 60% 30.18 in 10.0 mi South 6.9 mph - N/A   Clear
7:15 PM 71.6 °F - 55.4 °F 57% 30.18 in 10.0 mi SSW 4.6 mph - N/A   Clear
7:35 PM 69.8 °F - 55.4 °F 60% 30.18 in 10.0 mi South 4.6 mph - N/A   Clear
7:55 PM 69.8 °F - 53.6 °F 56% 30.18 in 10.0 mi South 3.5 mph - N/A   Clear
8:15 PM 68.0 °F - 53.6 °F 60% 30.18 in 10.0 mi SSW 5.8 mph - N/A   Clear
8:35 PM 66.2 °F - 53.6 °F 64% 30.18 in 10.0 mi SSW 6.9 mph - N/A   Clear
8:55 PM 66.2 °F - 51.8 °F 60% 30.19 in 10.0 mi SSW 6.9 mph - N/A   Clear
9:15 PM 66.2 °F - 51.8 °F 60% 30.19 in 10.0 mi SSW 5.8 mph - N/A   Clear
9:35 PM 64.4 °F - 53.6 °F 68% 30.20 in 10.0 mi SSW 4.6 mph - N/A   Clear
9:55 PM 64.4 °F - 53.6 °F 68% 30.20 in 10.0 mi SSW 6.9 mph - N/A   Clear
10:15 PM 64.4 °F - 53.6 °F 68% 30.21 in 10.0 mi SSW 5.8 mph - N/A   Clear
10:35 PM 64.4 °F - 53.6 °F 68% 30.21 in 10.0 mi SSW 5.8 mph - N/A   Clear
10:55 PM 64.4 °F - 53.6 °F 68% 30.20 in 10.0 mi SSW 5.8 mph - N/A   Clear
11:15 PM 64.4 °F - 53.6 °F 68% 30.21 in 10.0 mi SSW 5.8 mph - N/A   Clear
11:35 PM 64.4 °F - 53.6 °F 68% 30.20 in 10.0 mi SSW 5.8 mph - N/A   Mostly Cloudy
11:55 PM 64.4 °F - 55.4 °F 73% 30.21 in 10.0 mi SSW 4.6 mph - N/A   Partly Cloudy